Weather History for Buckeye, AZ

Change the Weather History Date:

Thursday, August 1, 2013

  Actual Average (KGYR) Record (KGYR)
Temperature  
Mean Temperature 97 °F -  
Max Temperature 107 °F 101 °F 114 °F (2008)
Min Temperature 87 °F 79 °F 78 °F (1997)
Cooling Degree Days 32    
Growing Degree Days 47 (Base 50)    
Moisture  
Dew Point 56 °F    
Average Humidity 26    
Maximum Humidity 38    
Minimum Humidity 15    
Precipitation  
Precipitation 0.00 in - - ()
Sea Level Pressure  
Sea Level Pressure 29.85 in    
Wind  
Wind Speed 6 mph (ESE)    
Max Wind Speed 24 mph    
Max Gust Speed 30 mph    
Visibility 10 miles    
Events      
Averages and records for this station are not official NWS values.
T = Trace of Precipitation, MM = Missing Value Source: NWS Daily Summary

Daily Weather History Graph

Daily Weather History Graph

Search for Another Location

Airport:

Trip Planner

Search our weather history database for the weather conditions in past years. The results will help you decide how hot, cold, wet, or windy it might be!

Date:

Astronomy

Aug. 01, 2013 Rise Set
Actual Time 5:43 AM MST 7:30 PM MST
Civil Twilight 5:16 AM MST 7:57 PM MST
Nautical Twilight 4:43 AM MST 8:29 PM MST
Astronomical Twilight 4:08 AM MST 9:04 PM MST
Moon 1:23 AM MST (8/1) 3:40 PM MST (8/1)
Length of Visible Light 14h 40m
Length of Day
13h 46m
Waning Crescent, 22% of the Moon is Illuminated
Aug 1
Waning Crescent
Aug 6
New
Aug 14
First Quarter
Aug 20
Full
Aug 28
Last Quarter

Hourly Weather History & Observations

Time (MST) Temp. Heat Index Dew Point Humidity Pressure Visibility Wind Dir Wind Speed Gust Speed Precip Events Conditions
12:15 AM 89.6 °F 87.7 °F 55.4 °F 31% 29.88 in 10.0 mi ESE 5.8 mph - N/A   Mostly Cloudy
12:35 AM 93.2 °F 91.3 °F 55.4 °F 28% 29.88 in 10.0 mi SE 3.5 mph - N/A   Overcast
12:55 AM 93.2 °F 91.3 °F 55.4 °F 28% 29.88 in 10.0 mi East 3.5 mph - N/A   Overcast
1:15 AM 91.4 °F 89.9 °F 57.2 °F 31% 29.87 in 10.0 mi South 4.6 mph - N/A   Overcast
1:35 AM 91.4 °F 89.9 °F 57.2 °F 31% 29.87 in 10.0 mi Calm Calm - N/A   Overcast
1:55 AM 91.4 °F 89.4 °F 55.4 °F 29% 29.86 in 10.0 mi Calm Calm - N/A   Overcast
2:15 AM 93.2 °F 90.8 °F 53.6 °F 26% 29.86 in 10.0 mi Calm Calm - N/A   Overcast
2:35 AM 91.4 °F 89.1 °F 53.6 °F 28% 29.85 in 10.0 mi Calm Calm - N/A   Overcast
2:55 AM 91.4 °F 89.1 °F 53.6 °F 28% 29.85 in 10.0 mi Calm Calm - N/A   Scattered Clouds
3:15 AM 89.6 °F 87.7 °F 55.4 °F 31% 29.85 in 10.0 mi Calm Calm - N/A   Scattered Clouds
3:35 AM 91.4 °F 89.1 °F 53.6 °F 28% 29.85 in 10.0 mi Calm Calm - N/A   Overcast
3:55 AM 91.4 °F 89.4 °F 55.4 °F 29% 29.86 in 10.0 mi Calm Calm - N/A   Overcast
4:15 AM 91.4 °F 89.1 °F 53.6 °F 28% 29.87 in 10.0 mi East 5.8 mph - N/A   Overcast
4:35 AM 91.4 °F 89.1 °F 53.6 °F 28% 29.87 in 10.0 mi Calm Calm - N/A   Overcast
4:55 AM 89.6 °F 87.3 °F 53.6 °F 29% 29.87 in 10.0 mi Calm Calm - N/A   Overcast
5:15 AM 89.6 °F 87.7 °F 55.4 °F 31% 29.88 in 10.0 mi NE 4.6 mph - N/A   Partly Cloudy
5:35 AM 87.8 °F 85.7 °F 53.6 °F 31% 29.88 in 10.0 mi NNE 4.6 mph - N/A   Clear
5:55 AM 87.8 °F 85.7 °F 53.6 °F 31% 29.88 in 10.0 mi North 3.5 mph - N/A   Clear
6:15 AM 87.8 °F 85.7 °F 53.6 °F 31% 29.89 in 10.0 mi Calm Calm - N/A   Clear
6:35 AM 87.8 °F 85.7 °F 53.6 °F 31% 29.89 in 10.0 mi NNE 3.5 mph - N/A   Clear
6:55 AM 89.6 °F 87.3 °F 53.6 °F 29% 29.90 in 10.0 mi Calm Calm - N/A   Clear
7:15 AM 89.6 °F 88.1 °F 57.2 °F 33% 29.90 in 10.0 mi East 4.6 mph - N/A   Clear
7:35 AM 93.2 °F 91.3 °F 55.4 °F 28% 29.90 in 10.0 mi East 3.5 mph - N/A   Clear
7:55 AM 95.0 °F 92.7 °F 53.6 °F 25% 29.90 in 10.0 mi ESE 3.5 mph - N/A   Clear
8:15 AM 95.0 °F 92.7 °F 53.6 °F 25% 29.91 in 10.0 mi ESE 8.1 mph - N/A   Clear
8:35 AM 95.0 °F 92.7 °F 53.6 °F 25% 29.91 in 10.0 mi East 6.9 mph - N/A   Clear
8:55 AM 96.8 °F 95.1 °F 55.4 °F 25% 29.90 in 10.0 mi East 9.2 mph - N/A   Clear
9:15 AM 98.6 °F 97.6 °F 57.2 °F 25% 29.91 in 10.0 mi East 10.4 mph - N/A   Clear
9:35 AM 98.6 °F 98.5 °F 59.0 °F 27% 29.90 in 10.0 mi ESE 9.2 mph - N/A   Clear
9:55 AM 98.6 °F 97.2 °F 55.4 °F 24% 29.91 in 10.0 mi East 8.1 mph - N/A   Clear
10:15 AM 98.6 °F 97.2 °F 55.4 °F 24% 29.91 in 10.0 mi SSE 6.9 mph - N/A   Clear
10:35 AM 100.4 °F 99.7 °F 57.2 °F 24% 29.91 in 10.0 mi ESE 6.9 mph - N/A   Clear
10:55 AM 100.4 °F 99.7 °F 57.2 °F 24% 29.90 in 10.0 mi ESE 5.8 mph - N/A   Clear
11:15 AM 100.4 °F 98.8 °F 55.4 °F 22% 29.90 in 10.0 mi SE 6.9 mph - N/A   Clear
11:35 AM 100.4 °F 98.8 °F 55.4 °F 22% 29.89 in 10.0 mi SSE 4.6 mph - N/A   Clear
11:55 AM 102.2 °F 100.9 °F 55.4 °F 21% 29.89 in 10.0 mi SE 9.2 mph - N/A   Clear
12:15 PM 102.2 °F 100.9 °F 55.4 °F 21% 29.88 in 10.0 mi East 5.8 mph - N/A   Clear
12:35 PM 102.2 °F 100.9 °F 55.4 °F 21% 29.87 in 10.0 mi ESE 9.2 mph - N/A   Clear
12:55 PM 104.0 °F 102.3 °F 53.6 °F 19% 29.87 in 10.0 mi SE 5.8 mph - N/A   Clear
1:15 PM 104.0 °F 102.3 °F 53.6 °F 19% 29.86 in 10.0 mi SSE 6.9 mph - N/A   Clear
1:35 PM 104.0 °F 102.3 °F 53.6 °F 19% 29.85 in 10.0 mi SE 6.9 mph - N/A   Clear
1:55 PM 105.8 °F - 51.8 °F 17% 29.85 in 10.0 mi SSE 9.2 mph - N/A   Clear
2:15 PM 104.0 °F - 51.8 °F 17% 29.84 in 10.0 mi ESE 6.9 mph - N/A   Clear
2:35 PM 105.8 °F 104.3 °F 53.6 °F 18% 29.83 in 10.0 mi East 9.2 mph - N/A   Clear
2:55 PM 107.6 °F 106.1 °F 53.6 °F 17% 29.82 in 10.0 mi South 6.9 mph - N/A   Clear
3:15 PM 107.6 °F - 51.8 °F 16% 29.80 in 10.0 mi SSW 5.8 mph - N/A   Clear
3:35 PM 105.8 °F - 51.8 °F 17% 29.79 in 10.0 mi SSE 8.1 mph - N/A   Clear
3:55 PM 105.8 °F - 50.0 °F 15% 29.78 in 10.0 mi ESE 5.8 mph - N/A   Clear
4:15 PM 104.0 °F - 50.0 °F 16% 29.78 in 10.0 mi SE 3.5 mph - N/A   Clear
4:35 PM 105.8 °F 104.3 °F 53.6 °F 18% 29.78 in 10.0 mi South 6.9 mph - N/A   Partly Cloudy
4:55 PM 105.8 °F 104.3 °F 53.6 °F 18% 29.77 in 10.0 mi South 8.1 mph - N/A   Partly Cloudy
5:15 PM 105.8 °F 104.3 °F 53.6 °F 18% 29.76 in 10.0 mi SSE 6.9 mph - N/A   Scattered Clouds
5:35 PM 104.0 °F 103.4 °F 57.2 °F 21% 29.76 in 3.0 mi ESE 24.2 mph 29.9 mph N/A   Mostly Cloudy
5:55 PM 100.4 °F 100.2 °F 59.0 °F 25% 29.76 in 5.0 mi ESE 24.2 mph 28.8 mph N/A   Partly Cloudy
6:15 PM 100.4 °F 100.2 °F 59.0 °F 25% 29.76 in 10.0 mi ESE 20.7 mph 26.5 mph N/A   Partly Cloudy
6:35 PM 98.6 °F 98.5 °F 59.0 °F 27% 29.77 in 10.0 mi ESE 13.8 mph - N/A   Partly Cloudy
6:55 PM 98.6 °F 98.5 °F 59.0 °F 27% 29.77 in 10.0 mi ESE 15.0 mph 20.7 mph N/A   Clear
7:15 PM 98.6 °F 98.5 °F 59.0 °F 27% 29.78 in 10.0 mi ESE 13.8 mph - N/A   Clear
7:35 PM 95.0 °F 94.4 °F 59.0 °F 30% 29.78 in 10.0 mi ESE 12.7 mph - N/A   Clear
7:55 PM 95.0 °F 94.4 °F 59.0 °F 30% 29.79 in 10.0 mi ESE 11.5 mph - N/A   Clear
8:15 PM 93.2 °F 92.6 °F 59.0 °F 32% 29.80 in 10.0 mi East 9.2 mph - N/A   Clear
8:35 PM 95.0 °F 94.4 °F 59.0 °F 30% 29.80 in 10.0 mi East 11.5 mph - N/A   Clear
8:55 PM 93.2 °F 92.6 °F 59.0 °F 32% 29.80 in 10.0 mi East 12.7 mph - N/A   Clear
9:15 PM 93.2 °F 92.6 °F 59.0 °F 32% 29.81 in 10.0 mi East 11.5 mph - N/A   Clear
9:35 PM 93.2 °F 92.6 °F 59.0 °F 32% 29.82 in 10.0 mi East 12.7 mph - N/A   Clear
9:55 PM 93.2 °F 92.6 °F 59.0 °F 32% 29.82 in 10.0 mi East 12.7 mph - N/A   Clear
10:15 PM 91.4 °F 91.4 °F 60.8 °F 36% 29.82 in 10.0 mi East 11.5 mph - N/A   Scattered Clouds
10:35 PM 91.4 °F 91.4 °F 60.8 °F 36% 29.83 in 10.0 mi East 13.8 mph 17.3 mph N/A   Scattered Clouds
10:55 PM 91.4 °F 92.1 °F 62.6 °F 38% 29.82 in 10.0 mi East 11.5 mph - N/A   Clear
11:15 PM 91.4 °F 91.4 °F 60.8 °F 36% 29.83 in 10.0 mi East 10.4 mph 16.1 mph N/A   Clear
11:35 PM 91.4 °F 92.1 °F 62.6 °F 38% 29.83 in 10.0 mi East 9.2 mph - N/A   Clear
11:55 PM 91.4 °F 91.4 °F 60.8 °F 36% 29.83 in 10.0 mi East 9.2 mph - N/A   Partly Cloudy